Date String (YYYY-MM-DD hh:mm:ss) UTC,Instrument flags,absolute air pressure of the measurement (hPa),sample flow rate (lpm),inlet stack bypass flow (lpm),air temperature of the measurement (°C),ambient temperature measured by the external sensor (°C),aerosol sample conditioner tube jacket temperature (°C),OPC LED temperature (°C),internal box temperature (°C),relative humidity of the measurement (%),span deviation,mass concentration of particles derived from Lorenz-Mie calculation of OPC scattering (μg/m³),mass concentration of particles derived from Lorenz-Mie calculation of OPC scattering (μg/m³),mass concentration of particles derived from Lorenz-Mie calculation of OPC scattering (μg/m³)
DateTimeUTC,F1_M11,P_M11,Q1_M11,Q2_M11,T1_M11,T2_M11,T3_M11,T4_M11,T5_M11,U1_M11,ZSPAN_M11,X2_M11,X0_M11,X1_M11
2023-07-14 17:00:00,SystemResetWarning,0834.7,5.00,000.00,029.1,027.2,000.0,037.4,030.5,34.2,0000.4,0008.20,0016.47,0006.99
2023-07-14 17:01:00,SystemResetWarning,0834.8,5.00,000.00,029.1,027.5,000.0,037.4,030.6,34.1,-000.1,0008.18,0016.62,0006.97
2023-07-14 17:02:00,SystemResetWarning,0834.9,5.00,000.00,029.1,027.7,000.0,037.5,030.7,34.4,-000.3,0008.18,0017.35,0006.96
2023-07-14 17:03:00,SystemResetWarning,0834.7,4.99,000.00,029.2,027.1,000.0,037.4,030.6,34.0,-000.2,0008.16,0016.99,0006.97
2023-07-14 17:04:00,SystemResetWarning,0834.8,4.99,000.00,029.1,025.5,000.0,037.3,030.3,34.3,-000.2,0008.13,0016.39,0006.96
2023-07-14 17:05:00,SystemResetWarning,0834.9,5.03,000.00,029.1,024.8,000.0,037.2,030.2,34.6,-000.6,0008.09,0016.22,0006.96
2023-07-14 17:06:00,SystemResetWarning,0834.7,4.97,000.00,029.1,024.9,000.0,037.2,030.1,33.7,-000.8,0008.05,0015.70,0006.95
2023-07-14 17:07:00,SystemResetWarning,0834.7,5.01,000.00,029.0,025.3,000.0,037.2,030.1,33.4,-001.0,0008.06,0016.49,0006.97
2023-07-14 17:08:00,SystemResetWarning,0834.8,5.01,000.00,029.1,025.8,000.0,037.3,030.2,33.4,-001.2,0008.06,0016.33,0006.96
2023-07-14 17:09:00,SystemResetWarning,0834.9,4.99,000.00,029.1,026.2,000.0,037.3,030.3,32.9,-000.8,0008.04,0015.52,0006.96
2023-07-14 17:10:00,SystemResetWarning,0835.2,4.99,000.00,029.1,026.6,000.0,037.3,030.4,33.7,-001.2,0008.05,0015.80,0006.95
2023-07-14 17:11:00,SystemResetWarning,0835.4,5.00,000.00,029.1,026.9,000.0,037.4,030.5,32.9,-001.2,0008.07,0017.16,0006.95
2023-07-14 17:12:00,SystemResetWarning,0835.0,5.01,000.00,029.2,027.2,000.0,037.4,030.5,33.4,-000.6,0008.06,0017.33,0006.95
2023-07-14 17:13:00,SystemResetWarning,0834.9,5.01,000.00,029.2,027.5,000.0,037.4,030.6,32.9,-000.7,0008.01,0017.36,0006.95
2023-07-14 17:14:00,SystemResetWarning,0835.0,5.00,000.00,029.3,027.3,000.0,037.4,030.7,32.7,-001.0,0008.04,0017.85,0006.92
2023-07-14 17:15:00,SystemResetWarning,0834.9,4.98,000.00,029.2,025.8,000.0,037.3,030.5,32.8,-000.8,0008.10,0019.00,0006.92
2023-07-14 17:16:00,SystemResetWarning,0835.2,5.01,000.00,029.2,024.9,000.0,037.2,030.3,31.9,-000.7,0008.11,0019.65,0006.90
2023-07-14 17:17:00,SystemResetWarning,0835.4,5.01,000.00,029.1,024.9,000.0,037.2,030.1,31.7,-000.3,0008.08,0019.79,0006.88
2023-07-14 17:18:00,SystemResetWarning,0834.9,5.00,000.00,029.0,025.2,000.0,037.3,030.1,32.7,0000.3,0008.06,0019.44,0006.85
2023-07-14 17:19:00,SystemResetWarning,0834.8,5.00,000.00,029.0,025.7,000.0,037.3,030.1,32.6,0000.6,0008.11,0019.81,0006.85
2023-07-14 17:20:00,SystemResetWarning,0834.7,5.00,000.00,029.0,026.1,000.0,037.3,030.2,33.0,-000.0,0008.11,0019.72,0006.86
2023-07-14 17:21:00,SystemResetWarning,0834.7,5.00,000.00,029.0,026.5,000.0,037.3,030.3,32.9,-000.1,0008.10,0019.34,0006.84
2023-07-14 17:22:00,SystemResetWarning,0834.7,5.00,000.00,029.0,026.9,000.0,037.4,030.4,33.3,0000.2,0008.03,0017.90,0006.82
2023-07-14 17:23:00,SystemResetWarning,0834.7,5.00,000.00,029.0,027.2,000.0,037.4,030.5,33.8,-000.0,0008.00,0018.26,0006.82
2023-07-14 17:24:00,SystemResetWarning,0834.8,5.00,000.00,029.1,027.4,000.0,037.4,030.6,34.0,-000.2,0008.05,0017.61,0006.82
2023-07-14 17:25:00,SystemResetWarning,0835.2,5.00,000.00,029.1,027.4,000.0,037.4,030.6,34.4,-000.7,0008.03,0016.82,0006.82
2023-07-14 17:26:00,SystemResetWarning,0835.3,4.98,000.00,029.1,026.0,000.0,037.3,030.4,33.5,-001.6,0008.00,0016.83,0006.82
2023-07-14 17:27:00,SystemResetWarning,0835.3,5.01,000.00,029.0,024.9,000.0,037.2,030.2,34.1,-001.7,0007.93,0015.96,0006.81
2023-07-14 17:28:00,SystemResetWarning,0835.2,5.00,000.00,029.0,024.8,000.0,037.1,030.1,34.6,-002.0,0007.96,0015.75,0006.81
2023-07-14 17:29:00,SystemResetWarning,0835.3,5.01,000.00,028.9,025.1,000.0,037.2,030.0,34.3,-001.9,0007.98,0015.44,0006.81
2023-07-14 17:30:00,SystemResetWarning,0835.3,5.00,000.00,028.9,025.5,000.0,037.2,030.1,34.6,-001.6,0007.94,0014.76,0006.81
2023-07-14 17:31:00,SystemResetWarning,0835.3,5.00,000.00,028.9,026.0,000.0,037.2,030.2,34.5,-001.2,0007.88,0014.82,0006.78
2023-07-14 17:32:00,SystemResetWarning,0835.2,5.00,000.00,029.0,026.4,000.0,037.2,030.3,34.2,-001.0,0007.91,0015.93,0006.79
2023-07-14 17:33:00,SystemResetWarning,0835.3,4.99,000.00,029.0,026.8,000.0,037.3,030.4,34.1,-001.1,0007.98,0017.24,0006.80
2023-07-14 17:34:00,SystemResetWarning,0835.1,5.00,000.00,029.0,027.1,000.0,037.3,030.4,34.3,-001.5,0008.00,0016.75,0006.77
2023-07-14 17:35:00,SystemResetWarning,0835.2,4.98,000.00,029.1,027.4,000.0,037.3,030.5,34.8,-001.4,0007.96,0017.93,0006.76
2023-07-14 17:36:00,SystemResetWarning,0835.0,5.03,000.00,029.2,027.6,000.0,037.4,030.7,34.8,-001.3,0008.00,0018.53,0006.76
2023-07-14 17:37:00,SystemResetWarning,0835.2,4.97,000.00,029.4,027.2,000.0,037.3,030.7,33.8,-000.9,0008.00,0018.63,0006.74
2023-07-14 17:38:00,SystemResetWarning,0834.9,5.01,000.00,029.5,025.6,000.0,037.2,030.5,33.6,-001.0,0008.05,0018.68,0006.74
2023-07-14 17:39:00,SystemResetWarning,0834.7,5.01,000.00,029.5,024.7,000.0,037.2,030.3,33.1,-001.0,0008.11,0019.05,0006.74
2023-07-14 17:40:00,SystemResetWarning,0834.7,4.99,000.00,029.4,024.7,000.0,037.2,030.0,33.8,-001.2,0008.14,0020.58,0006.74
2023-07-14 17:41:00,SystemResetWarning,0834.8,5.01,000.00,029.3,025.1,000.0,037.3,030.0,34.0,-001.0,0008.23,0022.37,0006.74
2023-07-14 17:42:00,SystemResetWarning,0835.1,5.01,000.00,029.3,025.6,000.0,037.3,030.1,33.9,-001.1,0008.30,0022.43,0006.76
2023-07-14 17:43:00,SystemResetWarning,0835.2,5.00,000.00,029.3,026.0,000.0,037.4,030.2,33.6,-001.3,0008.28,0022.41,0006.76
2023-07-14 17:44:00,SystemResetWarning,0835.3,5.00,000.00,029.3,026.4,000.0,037.4,030.3,33.8,-000.9,0008.22,0022.28,0006.76
2023-07-14 17:45:00,SystemResetWarning,0835.3,4.99,000.00,029.4,026.8,000.0,037.5,030.4,33.2,-000.3,0008.20,0022.22,0006.77
2023-07-14 17:46:00,SystemResetWarning,0835.3,5.00,000.00,029.4,027.1,000.0,037.5,030.5,32.7,-000.1,0008.22,0021.34,0006.77
2023-07-14 17:47:00,SystemResetWarning,0835.4,4.99,000.00,029.4,027.3,000.0,037.5,030.6,32.7,0000.6,0008.21,0021.31,0006.77
2023-07-14 17:48:00,SystemResetWarning,0835.2,5.00,000.00,029.5,027.5,000.0,037.6,030.7,33.3,0000.8,0008.22,0020.94,0006.78
2023-07-14 17:49:00,SystemResetWarning,0835.3,5.01,000.00,029.5,027.7,000.0,037.6,030.7,33.5,0000.5,0008.21,0021.18,0006.77
2023-07-14 17:50:00,SystemResetWarning,0835.3,4.99,000.00,029.5,027.0,000.0,037.5,030.7,33.1,0000.6,0008.18,0021.04,0006.76
2023-07-14 17:51:00,SystemResetWarning,0835.2,5.01,000.00,029.5,025.7,000.0,037.4,030.5,33.8,0000.5,0008.19,0020.24,0006.75
2023-07-14 17:52:00,SystemResetWarning,0835.2,5.01,000.00,029.4,025.6,000.0,037.4,030.4,33.9,-000.3,0008.12,0019.08,0006.76
2023-07-14 17:53:00,SystemResetWarning,0835.4,5.00,000.00,029.3,025.8,000.0,037.5,030.3,34.0,-000.4,0008.10,0019.64,0006.74
2023-07-14 17:54:00,SystemResetWarning,0835.2,5.00,000.00,029.3,026.2,000.0,037.5,030.4,33.9,-000.2,0008.13,0020.17,0006.73
2023-07-14 17:55:00,SystemResetWarning,0834.9,5.00,000.00,029.3,026.6,000.0,037.6,030.5,33.6,-000.5,0008.15,0019.20,0006.72
2023-07-14 17:56:00,SystemResetWarning,0835.0,5.01,000.00,029.3,026.9,000.0,037.6,030.6,33.2,-000.8,0008.16,0018.55,0006.73
2023-07-14 17:57:00,SystemResetWarning,0834.9,4.99,000.00,029.3,027.2,000.0,037.6,030.6,33.1,-001.2,0008.22,0018.48,0006.73
2023-07-14 17:58:00,SystemResetWarning,0834.9,5.00,000.00,029.4,027.5,000.0,037.6,030.7,33.5,-001.3,0008.20,0018.61,0006.73
2023-07-14 17:59:00,SystemResetWarning,0834.9,4.98,000.00,029.4,026.9,000.0,037.6,030.7,34.0,-001.9,0008.16,0018.31,0006.72
